owner,sensor,date,latitude,longitude,vertical_datum,wind_speed,wind_to_direction,wind_speed_of_gust,qcFlag 
TABS,ioos:station:wmo:42044:1,2013-11-01T00:00:00Z,26.1914,-97.0507,0.0,4.413162132,172.9718307,5.6,'11111222,11111222,11111222' 
TABS,ioos:station:wmo:42044:1,2013-11-01T00:30:00Z,26.1914,-97.0507,0.0,4.158328991,174.618676,5.75,'11111222,11111222,11111222' 
TABS,ioos:station:wmo:42044:1,2013-11-01T01:00:00Z,26.1914,-97.0507,0.0,4.143428532,173.9043632,5.06,'11111222,11111222,11111222' 
TABS,ioos:station:wmo:42044:1,2013-11-01T01:30:00Z,26.1914,-97.0507,0.0,3.650054794,180.3141561,4.58,'11111222,11111222,11111222' 
TABS,ioos:station:wmo:42044:1,2013-11-01T02:00:00Z,26.1914,-97.0507,0.0,3.726459446,171.9788474,4.61,'11111222,11111222,11111222' 
TABS,ioos:station:wmo:42044:1,2013-11-01T02:30:00Z,26.1914,-97.0507,0.0,3.634680179,192.3922045,4.67,'11111222,11111222,11111222' 
TABS,ioos:station:wmo:42044:1,2013-11-01T03:00:00Z,26.1914,-97.0507,0.0,2.849719284,162.6462264,4.17,'11111222,11111222,11111222' 
TABS,ioos:station:wmo:42044:1,2013-11-01T03:30:00Z,26.1914,-97.0507,0.0,2.74220714,177.7012549,3.47,'11111222,11111222,11111222' 
TABS,ioos:station:wmo:42044:1,2013-11-01T04:00:00Z,26.1914,-97.0507,0.0,2.081657993,186.0668293,3.02,'11111222,11111222,11111222' 
TABS,ioos:station:wmo:42044:1,2013-11-01T04:30:00Z,26.1914,-97.0507,0.0,1.680743883,181.7049348,2.46,'11111222,11111222,11111222' 
TABS,ioos:station:wmo:42044:1,2013-11-01T05:00:00Z,26.1914,-97.0507,0.0,2.916864755,183.9318727,3.81,'11111222,11111222,11111222' 
TABS,ioos:station:wmo:42044:1,2013-11-01T05:30:00Z,26.1914,-97.0507,0.0,2.252687284,182.7991024,3.87,'11111222,11111222,11111222' 
TABS,ioos:station:wmo:42044:1,2013-11-01T06:00:00Z,26.1914,-97.0507,0.0,0.602079729,191.4967466,1.16,'11111222,11111222,11111222' 
TABS,ioos:station:wmo:42044:1,2013-11-01T06:30:00Z,26.1914,-97.0507,0.0,1.589024858,155.854725,2.05,'11111222,11111222,11111222' 
TABS,ioos:station:wmo:42044:1,2013-11-01T07:00:00Z,26.1914,-97.0507,0.0,0.866083137,121.3044712,1.59,'11111222,11111222,11111222' 
TABS,ioos:station:wmo:42044:1,2013-11-01T07:30:00Z,26.1914,-97.0507,0.0,0.853756406,84.62288623,1.47,'11111222,11111222,11111222' 
TABS,ioos:station:wmo:42044:1,2013-11-01T08:00:00Z,26.1914,-97.0507,0.0,0.820365772,80.88173765,1.38,'11111222,11111222,11111222' 
TABS,ioos:station:wmo:42044:1,2013-11-01T08:30:00Z,26.1914,-97.0507,0.0,1.141271221,61.18885271,1.79,'11111222,11111222,11111222' 
TABS,ioos:station:wmo:42044:1,2013-11-01T09:00:00Z,26.1914,-97.0507,0.0,1.887326151,77.14151898,3.4,'11111222,11111222,11111222' 
TABS,ioos:station:wmo:42044:1,2013-11-01T09:30:00Z,26.1914,-97.0507,0.0,1.711724277,43.57942209,2.65,'11111222,11111222,11111222' 
TABS,ioos:station:wmo:42044:1,2013-11-01T10:00:00Z,26.1914,-97.0507,0.0,6.799448507,62.1155155,8.09,'11111222,11111222,11111222' 
TABS,ioos:station:wmo:42044:1,2013-11-01T10:30:00Z,26.1914,-97.0507,0.0,6.735317364,83.34939432,8.15,'11111222,11111222,11111222' 
TABS,ioos:station:wmo:42044:1,2013-11-01T11:00:00Z,26.1914,-97.0507,0.0,6.730029718,89.82931021,8.14,'11111222,11111222,11111222' 
TABS,ioos:station:wmo:42044:1,2013-11-01T11:30:00Z,26.1914,-97.0507,0.0,6.234845628,93.95508186,8.25,'11111222,11111222,11111222' 
TABS,ioos:station:wmo:42044:1,2013-11-01T12:00:00Z,26.1914,-97.0507,0.0,6.130293631,89.43879132,7.84,'11111222,11111222,11111222' 
TABS,ioos:station:wmo:42044:1,2013-11-01T12:30:00Z,26.1914,-97.0507,0.0,5.566632734,85.56930747,7.17,'11111222,11111222,11111222' 
TABS,ioos:station:wmo:42044:1,2013-11-01T13:00:00Z,26.1914,-97.0507,0.0,5.651937721,96.09431092,7.17,'11111222,11111222,11111222' 
TABS,ioos:station:wmo:42044:1,2013-11-01T13:30:00Z,26.1914,-97.0507,0.0,6.453479682,94.88939241,7.85,'11111222,11111222,11111222' 
TABS,ioos:station:wmo:42044:1,2013-11-01T14:00:00Z,26.1914,-97.0507,0.0,6.743092762,93.57144668,8.5,'11111222,11111222,11111222' 
TABS,ioos:station:wmo:42044:1,2013-11-01T14:30:00Z,26.1914,-97.0507,0.0,7.150104894,93.04689478,8.5,'11111222,11111222,11111222' 
TABS,ioos:station:wmo:42044:1,2013-11-01T15:00:00Z,26.1914,-97.0507,0.0,6.672345914,97.83904948,8.32,'11111222,11111222,11111222' 
TABS,ioos:station:wmo:42044:1,2013-11-01T15:30:00Z,26.1914,-97.0507,0.0,7.49675263,98.20616343,9.29,'11111222,11111222,11111222' 
TABS,ioos:station:wmo:42044:1,2013-11-01T16:00:00Z,26.1914,-97.0507,0.0,7.024535572,104.8477381,8.72,'11111222,11111222,11111222' 
TABS,ioos:station:wmo:42044:1,2013-11-01T16:30:00Z,26.1914,-97.0507,0.0,7.235606402,110.8900674,9.26,'11111222,11111222,11111222' 
TABS,ioos:station:wmo:42044:1,2013-11-01T17:00:00Z,26.1914,-97.0507,0.0,7.675135178,108.9310739,9.28,'11111222,11111222,11111222' 
TABS,ioos:station:wmo:42044:1,2013-11-01T17:30:00Z,26.1914,-97.0507,0.0,6.957075535,110.1804931,8.89,'11111222,11111222,11111222' 
TABS,ioos:station:wmo:42044:1,2013-11-01T18:00:00Z,26.1914,-97.0507,0.0,7.083876058,116.6739243,9.0,'11111222,11111222,11111222' 
TABS,ioos:station:wmo:42044:1,2013-11-01T18:30:00Z,26.1914,-97.0507,0.0,6.981009956,116.6388188,8.75,'11111222,11111222,11111222' 
TABS,ioos:station:wmo:42044:1,2013-11-01T19:00:00Z,26.1914,-97.0507,0.0,6.692951516,119.936359,8.33,'11111222,11111222,11111222' 
TABS,ioos:station:wmo:42044:1,2013-11-01T19:30:00Z,26.1914,-97.0507,0.0,6.398695179,121.2558788,7.97,'11111222,11111222,11111222' 
TABS,ioos:station:wmo:42044:1,2013-11-01T20:00:00Z,26.1914,-97.0507,0.0,6.602014844,126.7487331,8.03,'11111222,11111222,11111222' 
TABS,ioos:station:wmo:42044:1,2013-11-01T20:30:00Z,26.1914,-97.0507,0.0,5.977064497,129.2290342,7.77,'11111222,11111222,11111222' 
TABS,ioos:station:wmo:42044:1,2013-11-01T21:00:00Z,26.1914,-97.0507,0.0,5.885575588,133.3480149,7.54,'11111222,11111222,11111222' 
TABS,ioos:station:wmo:42044:1,2013-11-01T21:30:00Z,26.1914,-97.0507,0.0,5.494433547,137.9510879,6.9,'11111222,11111222,11111222' 
TABS,ioos:station:wmo:42044:1,2013-11-01T22:00:00Z,26.1914,-97.0507,0.0,5.318138772,147.5951981,6.95,'11111222,11111222,11111222' 
TABS,ioos:station:wmo:42044:1,2013-11-01T22:30:00Z,26.1914,-97.0507,0.0,5.474961187,146.0199727,7.14,'11111222,11111222,11111222' 
TABS,ioos:station:wmo:42044:1,2013-11-01T23:00:00Z,26.1914,-97.0507,0.0,5.89185879,150.737877,7.08,'11111222,11111222,11111222' 
TABS,ioos:station:wmo:42044:1,2013-11-01T23:30:00Z,26.1914,-97.0507,0.0,5.553125246,149.0011368,7.14,'11111222,11111222,11111222' 
TABS,ioos:station:wmo:42044:1,2013-11-02T00:00:00Z,26.1914,-97.0507,0.0,5.490837823,151.3814898,7.0,'11111222,11111222,11111222' 
TABS,ioos:station:wmo:42044:1,2013-11-02T00:30:00Z,26.1914,-97.0507,0.0,5.542788107,156.1637249,7.11,'11111222,11111222,11111222' 
TABS,ioos:station:wmo:42044:1,2013-11-02T01:00:00Z,26.1914,-97.0507,0.0,4.762058378,155.695718,6.02,'11111222,11111222,11111222' 
TABS,ioos:station:wmo:42044:1,2013-11-02T01:30:00Z,26.1914,-97.0507,0.0,4.209049774,154.5310725,5.25,'11111222,11111222,11111222' 
TABS,ioos:station:wmo:42044:1,2013-11-02T02:00:00Z,26.1914,-97.0507,0.0,4.443028247,161.769203,5.46,'11111222,11111222,11111222' 
TABS,ioos:station:wmo:42044:1,2013-11-02T02:30:00Z,26.1914,-97.0507,0.0,4.10706708,171.3177069,5.18,'11111222,11111222,11111222' 
TABS,ioos:station:wmo:42044:1,2013-11-02T03:00:00Z,26.1914,-97.0507,0.0,3.373218048,191.1102488,4.33,'11111222,11111222,11111222' 
TABS,ioos:station:wmo:42044:1,2013-11-02T03:30:00Z,26.1914,-97.0507,0.0,3.384154252,192.8044466,4.48,'11111222,11111222,11111222' 
TABS,ioos:station:wmo:42044:1,2013-11-02T04:00:00Z,26.1914,-97.0507,0.0,3.419853798,329.6107666,4.93,'11111222,11111222,11111222' 
TABS,ioos:station:wmo:42044:1,2013-11-02T04:30:00Z,26.1914,-97.0507,0.0,7.609954008,289.5778094,12.83,'11111222,11111222,11111222' 
TABS,ioos:station:wmo:42044:1,2013-11-02T05:00:00Z,26.1914,-97.0507,0.0,6.732079916,211.8250891,9.25,'11111222,11111222,11111222' 
TABS,ioos:station:wmo:42044:1,2013-11-02T05:30:00Z,26.1914,-97.0507,0.0,2.057984451,213.3041158,4.96,'11111222,11111222,11111222' 
TABS,ioos:station:wmo:42044:1,2013-11-02T06:00:00Z,26.1914,-97.0507,0.0,2.15,270.0,3.6,'11111222,11111222,11111222' 
TABS,ioos:station:wmo:42044:1,2013-11-02T06:30:00Z,26.1914,-97.0507,0.0,4.841983065,347.1116346,6.28,'11111222,11111222,11111222' 
TABS,ioos:station:wmo:42044:1,2013-11-02T07:00:00Z,26.1914,-97.0507,0.0,3.607173409,54.59123636,5.31,'11111222,11111222,11111222' 
TABS,ioos:station:wmo:42044:1,2013-11-02T07:30:00Z,26.1914,-97.0507,0.0,2.997081914,27.84730268,3.91,'11111222,11111222,11111222' 
TABS,ioos:station:wmo:42044:1,2013-11-02T08:00:00Z,26.1914,-97.0507,0.0,4.807036509,9.579659181,6.14,'11111222,11111222,11111222' 
TABS,ioos:station:wmo:42044:1,2013-11-02T08:30:00Z,26.1914,-97.0507,0.0,5.826731502,357.2454218,7.28,'11111222,11111222,11111222' 
TABS,ioos:station:wmo:42044:1,2013-11-02T09:00:00Z,26.1914,-97.0507,0.0,12.45979534,13.41142766,15.45,'11111222,11111222,11111222' 
TABS,ioos:station:wmo:42044:1,2013-11-02T09:30:00Z,26.1914,-97.0507,0.0,12.33188145,17.36208856,15.77,'11111222,11111222,11111222' 
TABS,ioos:station:wmo:42044:1,2013-11-02T10:00:00Z,26.1914,-97.0507,0.0,11.72230779,22.6271212,14.47,'11111222,11111222,11111222' 
TABS,ioos:station:wmo:42044:1,2013-11-02T10:30:00Z,26.1914,-97.0507,0.0,11.7377894,15.51602554,15.13,'11111222,11111222,11111222' 
TABS,ioos:station:wmo:42044:1,2013-11-02T11:00:00Z,26.1914,-97.0507,0.0,12.70642357,21.03077656,16.23,'11111222,11111222,11111222' 
TABS,ioos:station:wmo:42044:1,2013-11-02T11:30:00Z,26.1914,-97.0507,0.0,12.43768467,14.52760443,15.67,'11111222,11111222,11111222' 
TABS,ioos:station:wmo:42044:1,2013-11-02T12:00:00Z,26.1914,-97.0507,0.0,11.15502129,19.42553335,14.17,'11111222,11111222,11111222' 
TABS,ioos:station:wmo:42044:1,2013-11-02T12:30:00Z,26.1914,-97.0507,0.0,11.24411402,23.64661845,14.13,'11111222,11111222,11111222' 
TABS,ioos:station:wmo:42044:1,2013-11-02T13:00:00Z,26.1914,-97.0507,0.0,10.62755852,19.62818189,13.79,'11111222,11111222,11111222' 
TABS,ioos:station:wmo:42044:1,2013-11-02T13:30:00Z,26.1914,-97.0507,0.0,11.38631196,26.94734399,14.65,'11111222,11111222,11111222' 
TABS,ioos:station:wmo:42044:1,2013-11-02T14:00:00Z,26.1914,-97.0507,0.0,11.13747278,19.78506675,14.58,'11111222,11111222,11111222' 
TABS,ioos:station:wmo:42044:1,2013-11-02T14:30:00Z,26.1914,-97.0507,0.0,11.08174174,13.6221846,14.3,'11111222,11111222,11111222' 
TABS,ioos:station:wmo:42044:1,2013-11-02T15:00:00Z,26.1914,-97.0507,0.0,11.58152408,13.53205148,14.45,'11111222,11111222,11111222' 
TABS,ioos:station:wmo:42044:1,2013-11-02T15:30:00Z,26.1914,-97.0507,0.0,11.44594251,11.89873217,14.75,'11111222,11111222,11111222' 
TABS,ioos:station:wmo:42044:1,2013-11-02T16:00:00Z,26.1914,-97.0507,0.0,10.58331706,12.05292578,13.08,'11111222,11111222,11111222' 
TABS,ioos:station:wmo:42044:1,2013-11-02T16:30:00Z,26.1914,-97.0507,0.0,11.1122455,11.7343996,14.41,'11111222,11111222,11111222' 
TABS,ioos:station:wmo:42044:1,2013-11-02T17:00:00Z,26.1914,-97.0507,0.0,10.81503583,14.51141849,13.49,'11111222,11111222,11111222' 
TABS,ioos:station:wmo:42044:1,2013-11-02T17:30:00Z,26.1914,-97.0507,0.0,10.67517681,8.782656709,13.76,'11111222,11111222,11111222' 
TABS,ioos:station:wmo:42044:1,2013-11-02T18:00:00Z,26.1914,-97.0507,0.0,10.60174514,13.47236869,13.42,'11111222,11111222,11111222' 
TABS,ioos:station:wmo:42044:1,2013-11-02T18:30:00Z,26.1914,-97.0507,0.0,10.85160357,11.85850749,13.27,'11111222,11111222,11111222' 
TABS,ioos:station:wmo:42044:1,2013-11-02T19:00:00Z,26.1914,-97.0507,0.0,10.99172416,9.530645552,14.85,'11111222,11111222,11111222' 
TABS,ioos:station:wmo:42044:1,2013-11-02T19:30:00Z,26.1914,-97.0507,0.0,10.8624859,16.0320914,13.55,'11111222,11111222,11111222' 
TABS,ioos:station:wmo:42044:1,2013-11-02T20:00:00Z,26.1914,-97.0507,0.0,10.73359213,15.56386717,13.78,'11111222,11111222,11111222' 
TABS,ioos:station:wmo:42044:1,2013-11-02T20:30:00Z,26.1914,-97.0507,0.0,9.992302037,17.11090993,13.14,'11111222,11111222,11111222' 
TABS,ioos:station:wmo:42044:1,2013-11-02T21:00:00Z,26.1914,-97.0507,0.0,10.27818077,17.72955368,13.06,'11111222,11111222,11111222' 
TABS,ioos:station:wmo:42044:1,2013-11-02T21:30:00Z,26.1914,-97.0507,0.0,9.724865038,21.7902075,12.33,'11111222,11111222,11111222' 
TABS,ioos:station:wmo:42044:1,2013-11-02T22:00:00Z,26.1914,-97.0507,0.0,9.645024624,21.72393024,13.25,'11111222,11111222,11111222' 
TABS,ioos:station:wmo:42044:1,2013-11-02T22:30:00Z,26.1914,-97.0507,0.0,9.335443214,22.41659381,11.78,'11111222,11111222,11111222' 
TABS,ioos:station:wmo:42044:1,2013-11-02T23:00:00Z,26.1914,-97.0507,0.0,9.288428285,17.67391934,11.36,'11111222,11111222,11111222' 
TABS,ioos:station:wmo:42044:1,2013-11-02T23:30:00Z,26.1914,-97.0507,0.0,9.370432221,25.60766115,12.46,'11111222,11111222,11111222' 
TABS,ioos:station:wmo:42044:1,2013-11-03T00:00:00Z,26.1914,-97.0507,0.0,8.810136208,19.97729312,11.02,'11111222,11111222,11111222' 
TABS,ioos:station:wmo:42044:1,2013-11-03T00:30:00Z,26.1914,-97.0507,0.0,7.938545207,25.91922118,10.19,'11111222,11111222,11111222' 
TABS,ioos:station:wmo:42044:1,2013-11-03T01:00:00Z,26.1914,-97.0507,0.0,8.083421305,22.09071696,11.0,'11111222,11111222,11111222' 
TABS,ioos:station:wmo:42044:1,2013-11-03T01:30:00Z,26.1914,-97.0507,0.0,7.700551928,19.02292557,10.12,'11111222,11111222,11111222' 
TABS,ioos:station:wmo:42044:1,2013-11-03T02:00:00Z,26.1914,-97.0507,0.0,7.619829394,34.62828337,10.03,'11111222,11111222,11111222' 
TABS,ioos:station:wmo:42044:1,2013-11-03T02:30:00Z,26.1914,-97.0507,0.0,7.312079048,26.91520631,9.73,'11111222,11111222,11111222' 
TABS,ioos:station:wmo:42044:1,2013-11-03T03:00:00Z,26.1914,-97.0507,0.0,7.050397152,34.07294566,10.22,'11111222,11111222,11111222' 
TABS,ioos:station:wmo:42044:1,2013-11-03T03:30:00Z,26.1914,-97.0507,0.0,6.173953353,33.30369487,9.23,'11111222,11111222,11111222' 
TABS,ioos:station:wmo:42044:1,2013-11-03T04:00:00Z,26.1914,-97.0507,0.0,6.131769728,40.10436509,8.5,'11111222,11111222,11111222' 
TABS,ioos:station:wmo:42044:1,2013-11-03T04:30:00Z,26.1914,-97.0507,0.0,5.741985719,44.43521346,8.19,'11111222,11111222,11111222' 
TABS,ioos:station:wmo:42044:1,2013-11-03T05:00:00Z,26.1914,-97.0507,0.0,6.153056151,35.80800212,8.14,'11111222,11111222,11111222' 
TABS,ioos:station:wmo:42044:1,2013-11-03T05:30:00Z,26.1914,-97.0507,0.0,5.436064753,33.74824321,8.07,'11111222,11111222,11111222' 
TABS,ioos:station:wmo:42044:1,2013-11-03T06:00:00Z,26.1914,-97.0507,0.0,5.823830355,29.07343699,8.26,'11111222,11111222,11111222' 
TABS,ioos:station:wmo:42044:1,2013-11-03T06:30:00Z,26.1914,-97.0507,0.0,4.639062405,25.12854451,7.04,'11111222,11111222,11111222' 
TABS,ioos:station:wmo:42044:1,2013-11-03T07:00:00Z,26.1914,-97.0507,0.0,4.599695642,30.57894491,6.9,'11111222,11111222,11111222' 
TABS,ioos:station:wmo:42044:1,2013-11-03T07:30:00Z,26.1914,-97.0507,0.0,5.279138187,34.89392352,7.82,'11111222,11111222,11111222' 
TABS,ioos:station:wmo:42044:1,2013-11-03T08:00:00Z,26.1914,-97.0507,0.0,4.136870798,45.68524051,6.22,'11111222,11111222,11111222' 
TABS,ioos:station:wmo:42044:1,2013-11-03T08:30:00Z,26.1914,-97.0507,0.0,4.525980557,27.07431142,7.49,'11111222,11111222,11111222' 
TABS,ioos:station:wmo:42044:1,2013-11-03T09:00:00Z,26.1914,-97.0507,0.0,3.755768896,65.95969871,5.96,'11111222,11111222,11111222' 
TABS,ioos:station:wmo:42044:1,2013-11-03T09:30:00Z,26.1914,-97.0507,0.0,3.955363447,57.07295138,6.63,'11111222,11111222,11111222' 
TABS,ioos:station:wmo:42044:1,2013-11-03T10:00:00Z,26.1914,-97.0507,0.0,2.841126537,54.74330281,6.67,'11111222,11111222,11111222' 
TABS,ioos:station:wmo:42044:1,2013-11-03T10:30:00Z,26.1914,-97.0507,0.0,3.085611771,47.36375837,4.93,'11111222,11111222,11111222' 
TABS,ioos:station:wmo:42044:1,2013-11-03T11:00:00Z,26.1914,-97.0507,0.0,3.030808473,88.67615272,4.55,'11111222,11111222,11111222' 
TABS,ioos:station:wmo:42044:1,2013-11-03T11:30:00Z,26.1914,-97.0507,0.0,3.498128071,57.49077649,5.97,'11111222,11111222,11111222' 
TABS,ioos:station:wmo:42044:1,2013-11-03T12:00:00Z,26.1914,-97.0507,0.0,2.974844534,68.09092549,4.86,'11111222,11111222,11111222' 
TABS,ioos:station:wmo:42044:1,2013-11-03T12:30:00Z,26.1914,-97.0507,0.0,2.563630239,131.8380253,4.25,'11111222,11111222,11111222' 
TABS,ioos:station:wmo:42044:1,2013-11-03T13:00:00Z,26.1914,-97.0507,0.0,3.637609105,129.4227236,5.91,'11111222,11111222,11111222' 
TABS,ioos:station:wmo:42044:1,2013-11-03T13:30:00Z,26.1914,-97.0507,0.0,3.448042923,100.5281824,6.1,'11111222,11111222,11111222' 
TABS,ioos:station:wmo:42044:1,2013-11-03T14:00:00Z,26.1914,-97.0507,0.0,2.159467527,120.0085078,4.6,'11111222,11111222,11111222' 
TABS,ioos:station:wmo:42044:1,2013-11-03T14:30:00Z,26.1914,-97.0507,0.0,4.140301921,90.69236367,6.64,'11111222,11111222,11111222' 
TABS,ioos:station:wmo:42044:1,2013-11-03T15:00:00Z,26.1914,-97.0507,0.0,3.304300228,83.04663787,5.31,'11111222,11111222,11111222' 
TABS,ioos:station:wmo:42044:1,2013-11-03T15:30:00Z,26.1914,-97.0507,0.0,2.812614442,113.4664419,4.56,'11111222,11111222,11111222' 
TABS,ioos:station:wmo:42044:1,2013-11-03T16:00:00Z,26.1914,-97.0507,0.0,2.827030244,113.1191212,4.62,'11111222,11111222,11111222' 
TABS,ioos:station:wmo:42044:1,2013-11-03T16:30:00Z,26.1914,-97.0507,0.0,2.739069185,158.5872911,4.26,'11111222,11111222,11111222' 
TABS,ioos:station:wmo:42044:1,2013-11-03T17:00:00Z,26.1914,-97.0507,0.0,3.265348373,115.3882678,5.68,'11111222,11111222,11111222' 
TABS,ioos:station:wmo:42044:1,2013-11-03T17:30:00Z,26.1914,-97.0507,0.0,2.863564213,118.3553164,4.56,'11111222,11111222,11111222' 
TABS,ioos:station:wmo:42044:1,2013-11-03T18:00:00Z,26.1914,-97.0507,0.0,2.915784629,128.8749581,4.26,'11111222,11111222,11111222' 
TABS,ioos:station:wmo:42044:1,2013-11-03T18:30:00Z,26.1914,-97.0507,0.0,2.371349827,123.8244343,3.74,'11111222,11111222,11111222' 
TABS,ioos:station:wmo:42044:1,2013-11-03T19:00:00Z,26.1914,-97.0507,0.0,3.430174923,153.1364202,4.78,'11111222,11111222,11111222' 
TABS,ioos:station:wmo:42044:1,2013-11-03T19:30:00Z,26.1914,-97.0507,0.0,3.142308069,126.0679269,4.91,'11111222,11111222,11111222' 
TABS,ioos:station:wmo:42044:1,2013-11-03T20:00:00Z,26.1914,-97.0507,0.0,2.945674795,131.9730776,4.35,'11111222,11111222,11111222' 
TABS,ioos:station:wmo:42044:1,2013-11-03T20:30:00Z,26.1914,-97.0507,0.0,3.635065336,125.483047,6.28,'11111222,11111222,11111222' 
TABS,ioos:station:wmo:42044:1,2013-11-03T21:00:00Z,26.1914,-97.0507,0.0,4.845802307,122.8705508,7.6,'11111222,11111222,11111222' 
TABS,ioos:station:wmo:42044:1,2013-11-03T21:30:00Z,26.1914,-97.0507,0.0,4.57629763,109.2667876,6.18,'11111222,11111222,11111222' 
TABS,ioos:station:wmo:42044:1,2013-11-03T22:00:00Z,26.1914,-97.0507,0.0,4.297033861,100.8657781,6.59,'11111222,11111222,11111222' 
TABS,ioos:station:wmo:42044:1,2013-11-03T22:30:00Z,26.1914,-97.0507,0.0,3.848493212,108.482406,5.29,'11111222,11111222,11111222' 
TABS,ioos:station:wmo:42044:1,2013-11-03T23:00:00Z,26.1914,-97.0507,0.0,4.265231529,106.4808924,6.12,'11111222,11111222,11111222' 
TABS,ioos:station:wmo:42044:1,2013-11-03T23:30:00Z,26.1914,-97.0507,0.0,4.139190742,111.5447347,6.53,'11111222,11111222,11111222' 
TABS,ioos:station:wmo:42044:1,2013-11-04T00:00:00Z,26.1914,-97.0507,0.0,3.811049724,94.36452413,5.34,'11111222,11111222,11111222' 
TABS,ioos:station:wmo:42044:1,2013-11-04T00:30:00Z,26.1914,-97.0507,0.0,5.041150662,109.226057,7.0,'11111222,11111222,11111222' 
TABS,ioos:station:wmo:42044:1,2013-11-04T01:00:00Z,26.1914,-97.0507,0.0,5.139280105,110.6216602,7.35,'11111222,11111222,11111222' 
TABS,ioos:station:wmo:42044:1,2013-11-04T01:30:00Z,26.1914,-97.0507,0.0,5.59085861,106.5229397,7.77,'11111222,11111222,11111222' 
TABS,ioos:station:wmo:42044:1,2013-11-04T02:00:00Z,26.1914,-97.0507,0.0,5.466186971,132.0342817,7.19,'11111222,11111222,11111222' 
TABS,ioos:station:wmo:42044:1,2013-11-04T02:30:00Z,26.1914,-97.0507,0.0,6.044675343,129.5631736,8.25,'11111222,11111222,11111222' 
TABS,ioos:station:wmo:42044:1,2013-11-04T03:00:00Z,26.1914,-97.0507,0.0,6.787355892,131.4165429,8.4,'11111222,11111222,11111222' 
TABS,ioos:station:wmo:42044:1,2013-11-04T03:30:00Z,26.1914,-97.0507,0.0,6.525067049,116.0941747,8.36,'11111222,11111222,11111222' 
TABS,ioos:station:wmo:42044:1,2013-11-04T04:00:00Z,26.1914,-97.0507,0.0,6.240072115,115.3334355,7.99,'11111222,11111222,11111222' 
TABS,ioos:station:wmo:42044:1,2013-11-04T04:30:00Z,26.1914,-97.0507,0.0,4.870164268,116.4601839,7.04,'11111222,11111222,11111222' 
TABS,ioos:station:wmo:42044:1,2013-11-04T05:00:00Z,26.1914,-97.0507,0.0,7.312735466,130.5081392,8.84,'11111222,11111222,11111222' 
TABS,ioos:station:wmo:42044:1,2013-11-04T05:30:00Z,26.1914,-97.0507,0.0,6.715839486,129.2597225,8.72,'11111222,11111222,11111222' 
TABS,ioos:station:wmo:42044:1,2013-11-04T06:00:00Z,26.1914,-97.0507,0.0,6.929877344,134.5326065,9.03,'11111222,11111222,11111222' 
TABS,ioos:station:wmo:42044:1,2013-11-04T06:30:00Z,26.1914,-97.0507,0.0,6.210394512,143.7762163,8.26,'11111222,11111222,11111222' 
TABS,ioos:station:wmo:42044:1,2013-11-04T07:00:00Z,26.1914,-97.0507,0.0,5.92710722,175.6459996,7.78,'11111222,11111222,11111222' 
TABS,ioos:station:wmo:42044:1,2013-11-04T07:30:00Z,26.1914,-97.0507,0.0,6.428001245,166.8720057,7.87,'11111222,11111222,11111222' 
TABS,ioos:station:wmo:42044:1,2013-11-04T08:00:00Z,26.1914,-97.0507,0.0,5.774816014,159.5255001,7.21,'11111222,11111222,11111222' 
TABS,ioos:station:wmo:42044:1,2013-11-04T08:30:00Z,26.1914,-97.0507,0.0,5.712136203,172.2531327,7.09,'11111222,11111222,11111222' 
TABS,ioos:station:wmo:42044:1,2013-11-04T09:00:00Z,26.1914,-97.0507,0.0,5.774400402,171.4351208,6.96,'11111222,11111222,11111222' 
TABS,ioos:station:wmo:42044:1,2013-11-04T09:30:00Z,26.1914,-97.0507,0.0,5.425946922,174.3947023,7.84,'11111222,11111222,11111222' 
TABS,ioos:station:wmo:42044:1,2013-11-04T10:00:00Z,26.1914,-97.0507,0.0,5.585785531,169.3742789,7.44,'11111222,11111222,11111222' 
TABS,ioos:station:wmo:42044:1,2013-11-04T10:30:00Z,26.1914,-97.0507,0.0,5.018724938,159.470937,6.85,'11111222,11111222,11111222' 
TABS,ioos:station:wmo:42044:1,2013-11-04T11:00:00Z,26.1914,-97.0507,0.0,4.1804306,216.0476528,6.28,'11111222,11111222,11111222' 
TABS,ioos:station:wmo:42044:1,2013-11-04T11:30:00Z,26.1914,-97.0507,0.0,3.915673633,221.9982009,5.26,'11111222,11111222,11111222' 
TABS,ioos:station:wmo:42044:1,2013-11-04T12:00:00Z,26.1914,-97.0507,0.0,3.802170433,232.5876895,5.05,'11111222,11111222,11111222' 
TABS,ioos:station:wmo:42044:1,2013-11-04T12:30:00Z,26.1914,-97.0507,0.0,2.836564824,226.5714122,3.87,'11111222,11111222,11111222' 
TABS,ioos:station:wmo:42044:1,2013-11-04T13:00:00Z,26.1914,-97.0507,0.0,3.161850724,214.0420101,4.25,'11111222,11111222,11111222' 
TABS,ioos:station:wmo:42044:1,2013-11-04T13:30:00Z,26.1914,-97.0507,0.0,3.025970919,266.4000518,3.86,'11111222,11111222,11111222' 
TABS,ioos:station:wmo:42044:1,2013-11-04T14:00:00Z,26.1914,-97.0507,0.0,1.455609838,282.6995548,2.17,'11111222,11111222,11111222' 
TABS,ioos:station:wmo:42044:1,2013-11-04T14:30:00Z,26.1914,-97.0507,0.0,1.58533908,265.2963963,2.42,'11111222,11111222,11111222' 
TABS,ioos:station:wmo:42044:1,2013-11-04T15:00:00Z,26.1914,-97.0507,0.0,0.181107703,353.6596126,1.29,'11111222,11111222,11111222' 
TABS,ioos:station:wmo:42044:1,2013-11-04T15:30:00Z,26.1914,-97.0507,0.0,0.778331549,47.08224472,1.62,'11111222,11111222,11111222' 
TABS,ioos:station:wmo:42044:1,2013-11-04T16:00:00Z,26.1914,-97.0507,0.0,0.591354378,356.1212741,1.16,'11111222,11111222,11111222' 
TABS,ioos:station:wmo:42044:1,2013-11-04T16:30:00Z,26.1914,-97.0507,0.0,2.194766502,54.6440674,2.99,'11111222,11111222,11111222' 
TABS,ioos:station:wmo:42044:1,2013-11-04T17:00:00Z,26.1914,-97.0507,0.0,2.192076641,44.63004011,2.98,'11111222,11111222,11111222' 
TABS,ioos:station:wmo:42044:1,2013-11-04T17:30:00Z,26.1914,-97.0507,0.0,1.305871357,63.63080722,2.46,'11111222,11111222,11111222' 
TABS,ioos:station:wmo:42044:1,2013-11-04T18:00:00Z,26.1914,-97.0507,0.0,3.192397218,146.7582237,4.2,'11111222,11111222,11111222' 
TABS,ioos:station:wmo:42044:1,2013-11-04T18:30:00Z,26.1914,-97.0507,0.0,3.288114961,134.6306715,4.52,'11111222,11111222,11111222' 